Leadville, CO

5:46 PM MDT on August 25, 2016 (GMT -0600)
Lake County

Weather History for KLXV - June, 2014

Change the Weather History Date:

Tuesday, June 17, 2014

  Actual Average Record
Temperature  
Mean Temperature 55 °F -  
Max Temperature 65 °F 66 °F 76 °F (1977)
Min Temperature 45 °F 33 °F 26 °F (1990)
Degree Days  
Heating Degree Days 10 16  
Month to date heating degree days 280 300  
Since 1 June heating degree days 280 300  
Since 1 July heating degree days 10944 11054  
Cooling Degree Days 0 0  
Month to date cooling degree days 0 0  
Year to date cooling degree days 0 0  
Since 1 June cooling degree days 0 0  
Growing Degree Days 5 (Base 50)    
Moisture  
Dew Point 15 °F    
Average Humidity 23    
Maximum Humidity 30    
Minimum Humidity 16    
Precipitation  
Precipitation 0.00 in 0.03 in 0.10 in (2003)
Month to date precipitation 0.14 0.50  
Year to date precipitation 8.62 4.63  
Sea Level Pressure  
Sea Level Pressure 29.60 in    
Wind  
Wind Speed 13 mph (SSW)    
Max Wind Speed 29 mph    
Max Gust Speed 38 mph    
Visibility 10 miles    
Events      
T = Trace of Precipitation, MM = Missing Value Source: NWS Daily Summary

Daily Weather History Graph

Daily Weather History Graph

Search for Another Location

Airport or City:

Trip Planner

Search our weather history database for the weather conditions in past years. The results will help you decide how hot, cold, wet, or windy it might be!

Date:

Astronomy

Jun. 17, 2014 Rise Set
Actual Time 5:38 AM MDT 8:34 PM MDT
Civil Twilight 5:06 AM MDT 9:06 PM MDT
Nautical Twilight 4:25 AM MDT 9:47 PM MDT
Astronomical Twilight 3:38 AM MDT 10:34 PM MDT
Moon No Moon Rise 10:54 AM MDT (6/17)
Length of Visible Light 16h 00m
Length of Day
14h 55m
Waning Gibbous, 73% of the Moon is Illuminated
Jun 17
Waning Gibbous
Jun 19
Last Quarter
Jun 27
New
Jul 5
First Quarter
Jul 12
Full

Hourly Weather History & Observations

Time (MDT) Temp. Dew Point Humidity Pressure Visibility Wind Dir Wind Speed Gust Speed Precip Events Conditions
12:53 AM 48.0 °F 8.1 °F 20% 29.63 in 10.0 mi South 5.8 mph - N/A   Clear
1:53 AM 48.9 °F 7.0 °F 18% 29.61 in 10.0 mi South 8.1 mph - N/A   Clear
2:53 AM 51.1 °F 8.1 °F 18% 29.60 in 10.0 mi South 16.1 mph 23.0 mph N/A   Clear
3:53 AM 50.0 °F 9.0 °F 19% 29.60 in 10.0 mi SSW 12.7 mph - N/A   Clear
4:53 AM 48.9 °F 10.0 °F 21% 29.60 in 10.0 mi South 15.0 mph - N/A   Clear
5:53 AM 48.9 °F 10.9 °F 22% 29.62 in 10.0 mi SSW 10.4 mph 19.6 mph N/A   Clear
6:53 AM 46.9 °F 14.0 °F 27% 29.64 in 10.0 mi South 6.9 mph - N/A   Clear
7:53 AM 51.1 °F 12.9 °F 22% 29.64 in 10.0 mi South 11.5 mph - N/A   Clear
8:53 AM 53.1 °F 14.0 °F 21% 29.65 in 10.0 mi SSW 15.0 mph 21.9 mph N/A   Clear
9:53 AM 55.9 °F 15.1 °F 20% 29.64 in 10.0 mi SSW 18.4 mph 24.2 mph N/A   Clear
10:53 AM 57.9 °F 15.1 °F 19% 29.62 in 10.0 mi SW 13.8 mph 26.5 mph N/A   Partly Cloudy
11:53 AM 60.1 °F 15.1 °F 17% 29.62 in 10.0 mi WSW 11.5 mph 26.5 mph N/A   Partly Cloudy
12:53 PM 62.1 °F 15.1 °F 16% 29.61 in 10.0 mi SW 21.9 mph 36.8 mph N/A   Scattered Clouds
1:53 PM 62.1 °F 18.0 °F 18% 29.58 in 10.0 mi SSW 11.5 mph 23.0 mph N/A   Mostly Cloudy
2:53 PM 63.0 °F 16.0 °F 16% 29.56 in 10.0 mi SSE 17.3 mph 31.1 mph N/A   Mostly Cloudy
3:53 PM 63.0 °F 16.0 °F 16% 29.55 in 10.0 mi South 21.9 mph 28.8 mph N/A   Mostly Cloudy
4:53 PM 64.9 °F 17.1 °F 16% 29.55 in 10.0 mi SSW 19.6 mph 34.5 mph N/A   Mostly Cloudy
5:53 PM 62.1 °F 15.1 °F 16% 29.56 in 10.0 mi SSW 15.0 mph 27.6 mph N/A   Mostly Cloudy
6:53 PM 62.1 °F 17.1 °F 18% 29.58 in 10.0 mi WSW 12.7 mph 19.6 mph N/A   Mostly Cloudy
7:53 PM 59.0 °F 18.0 °F 20% 29.59 in 10.0 mi SSW 12.7 mph 32.2 mph N/A   Mostly Cloudy
8:53 PM 57.0 °F 19.0 °F 23% 29.60 in 10.0 mi South 15.0 mph 20.7 mph N/A   Mostly Cloudy
9:53 PM 55.0 °F 21.0 °F 27% 29.62 in 10.0 mi SSW 5.8 mph - N/A   Mostly Cloudy
10:53 PM 52.0 °F 21.9 °F 31% 29.63 in 10.0 mi South 3.5 mph - N/A   Partly Cloudy
11:53 PM 53.1 °F 21.0 °F 29% 29.59 in 10.0 mi South 12.7 mph - N/A   Partly Cloudy